Weather Roundup
Issued by NWS Chicago, IL

Home | Current Version | Previous Version | Graphics & Text | Print | Product List | Glossary On
Versions: 1 2 3 4 5 6 7 8 9 10 11 12 13 14 15 16 17 18 19 20 21 22 23 24 25 26 27 28 29 30 31 32 33 34 35 36 37 38 39 40 41 42 43 44 45 46 47 48 49 50
000
NZUS59 KLOT 250503
HRRLOT

CHICAGO AREA WEATHER ROUNDUP
NATIONAL WEATHER SERVICE CHICAGO/ROMEOVILLE IL
1100 PM CST SAT FEB 24 2018

NOTE: "FAIR" INDICATES FEW OR NO CLOUDS BELOW 12,000 FEET WITH NO
SIGNIFICANT WEATHER AND/OR OBSTRUCTIONS TO VISIBILITY.

* THESE STATIONS ARE NOT UNDER NWS QUALITY CONTROL. THEY ALSO MAY NOT
  REPORT WEATHER SUCH AS PRECIPITATION OR FOG.

ILZ005-006-012>014-019>023-250600-
NORTHEAST ILLINOIS

CITY           SKY/WX    TMP DP  RH WIND       PRES   REMARKS
OHARE          CLOUDY    47  44  90 SE15      29.45F
MIDWAY         CLOUDY    48  47  96 SE16G25   29.45F
AURORA         RAIN      48  48 100 SE15G24   29.43F FOG
LANSING*       LGT RAIN  47  47 100 SE16G25   29.49F
JOLIET*        DRIZZLE   50  50  99 S9G20     29.44F
WAUKEGAN       CLOUDY    37  37 100 SE12G20   29.45F FOG
DUPAGE AIRPORT LGT RAIN  47  47 100 SE16G26   29.42F FOG
WHEELING       CLOUDY    46  45  96 SE14      29.46F FOG
KANKAKEE*      RAIN      48  47  97 SE10      29.49F
MORRIS*        RAIN      50  49  97 SE16      29.42F
LEWIS AIRPORT* LGT RAIN  48  47  97 S18G26    29.44F
NORTHERLY ISL    N/A     42  40  92 SE8         N/A
$$

WIZ051-052-058>065-066-070>072-250600-
SOUTHEAST WISCONSIN

CITY           SKY/WX    TMP DP  RH WIND       PRES   REMARKS
MILWAUKEE      LGT RAIN  38  37  97 SE20G28   29.47F FOG
KENOSHA*       CLOUDY    39  37  92 SE15      29.46F FOG
RACINE*        CLOUDY    38  37  97 SE14      29.48F FOG
BURLINGTON     FOG       39  38  97 SE12G17   29.44F VSB 1
WAUKESHA       CLOUDY    36  36 100 SE15G24   29.46F FOG
WEST BEND      HVY RAIN  36  36 100 SE12      29.45F
$$

INZ001>003-010>013-019-020-250600-
NORTHWEST INDIANA

CITY           SKY/WX    TMP DP  RH WIND       PRES   REMARKS
GARY*          RAIN      49  47  94 SE17G28   29.48F
MICHIGAN CITY* NOT AVBL
RENSSELAER*    NOT AVBL
VALPARAISO     CLOUDY    48  46  93 SE10      29.53F
$$

LMZ740>746-250600-
SOUTHERN LAKE MICHIGAN

STATION/POSITION TIME  SKY/WX   TEMP WIND        PRES    VSBY
                                AIR  DIR/SP/G
                 (UTC)          (F)  (DEG/KT/KT) (MB)    (MI)
HARRISON CRIB    0440            41  150/ 13/ 15   N/A
BURNHAM HARBOR   0500            43  150/  8/ 13   N/A
CALUMET HARBOR   0430            47  140/ 13/ 22  998.4F
BURNS HARBOR     0440            47  150/ 14/ 30 1000.0F
MICHIGAN CITY    0440            45  130/ 20/ 24   N/A
$$

ABBREVIATIONS USED IN REMARKS
   TC - TEMPERATURE IN CELSIUS
  WCI - WIND CHILL INDEX
   HX - HEAT INDEX
  VSB - VISIBILITY
$$




USA.gov is the U.S. government's official web portal to all federal, state and local government web resources and services.